User: anonymous   Login
Location: Plum
(40.5000°N, 79.7500°W)
Time: 17:25:10
(UTC-04:00)
Language:

MOZ.5/SAFIR/RUBIN 5/SL-8 - Orbit

View from above orbital plane
View from above orbital plane
View from above satellite
View from above satellite

Ground track
Ground track

The orbit data is extracted from the following two-line orbital elements,

1 28898U 05043G   17228.49038070  .00000028  00000-0  15114-4 0  9994
2 28898  97.9348  15.6335 0019769   2.6546 357.4756 14.60188225628634
Epoch (UTC): 16 August 2017 11:46:08
Eccentricity: 0.0019769
inclination: 97.9348°
perigee height: 678 km
apogee height: 706 km
right ascension of ascending node: 15.6335°
argument of perigee: 2.6546°
revolutions per day: 14.60188225
mean anomaly at epoch: 357.4756°
orbit number at epoch: 62863

The dashed part of the orbit path shows where the satellite is in the earth's shadow,  

DLR